Flag for Austria Weather past 2 weeks in Stockerau, Lower Austria, Austria

Now
72 °F

Broken clouds.


Feels Like: 71 °F
Forecast: 63 / 80 °F
Wind: 3 mph from North

Location: Tulln Airport

Current Time: Jul 31, 2014 at 12:21:37 PM

Latest Report: Jul 31, 2014 at 11:50 AM


Visibility: 19 mi

Pressure: 29.86 "Hg

Humidity: 83%

Dew point: 66 °F

Location of StockerauLocation

Historic Weather in Stockerau — Graph

°F

Stockerau temperature yesterday

Maximum temperature yesterday: 81 °F (at 12:50 PM)
Minimum temperature yesterday: 64 °F (at 5:50 AM)
Average temperature yesterday: 74 °F

Past Weeks' High & Low Weather Summary

 TemperatureHumidityPressure
High91 °F (Jul 20, 1:50 PM)100% (Jul 26, 5:50 AM)30.15 "Hg (Jul 26, 5:50 AM)
Low57 °F (Jul 24, 5:50 AM)33% (Jul 18, 2:50 PM)29.68 "Hg (Jul 29, 7:50 PM)
Average75 °F67%29.91 "Hg
* Reported Jul 16 10:50 AM — Jul 31 10:50 AM, Stockerau, Weather by CustomWeather, © 2014

Note: Actual official high and low records may vary slightly from our data, if they occured in-between our weather recording intervals... More about our weather records

Advertising

Stockerau weather history for previous 24 hours

 ConditionsComfort  
Time TempWeatherWind HumidityBarometerVisibility
10:50 AM
Jul 31
72 °FBroken clouds.3 mph83%29.86 "Hg16 mi
9:50 AM70 °FPartly sunny.1 mph88%29.83 "Hg9 mi
8:50 AM68 °FPartly sunny.3 mph94%29.83 "Hg6 mi
7:50 AM68 °FFog.3 mph94%29.83 "Hg3 mi
6:50 AM66 °FFog.6 mph100%29.80 "Hg1 mi
5:50 AM68 °FPartly cloudy.3 mph94%29.80 "Hg4 mi
10:50 PM
Jul 30
68 °FStrong thunderstorms. Partly cloudy.5 mph94%29.77 "Hg5 mi
9:50 PM70 °FThunderstorms. Partly cloudy.6 mph94%29.77 "Hg6 mi
8:50 PM70 °FThunderstorms. Broken clouds.2 mph94%29.74 "Hg6 mi
6:50 PM73 °FBroken clouds.7 mph78%29.74 "Hg12 mi
5:50 PM77 °FBroken clouds.12 mph69%29.74 "Hg12 mi
4:50 PM75 °FLight rain. Broken clouds.10 mph69%29.74 "Hg12 mi
3:50 PM81 °FBroken clouds.13 mph62%29.74 "Hg16 mi
2:50 PM81 °FScattered clouds.12 mph54%29.74 "Hg19 mi
1:50 PM81 °FBroken clouds.9 mph54%29.74 "Hg12 mi
12:50 PM81 °FPartly sunny.9 mph54%29.74 "Hg16 mi
Weather by CustomWeather, © 2014

See weather overviewHow to use our weather pages